Time,TemperatureF,DewpointF,PressureIn,WindDirection,WindDirectionDegrees,WindSpeedMPH,WindSpeedGustMPH,Humidity,HourlyPrecipIn,Conditions,Clouds,dailyrainin,SoftwareType,DateUTC
2013-09-27 00:02:00,58.3,45.8,29.90,East,97,0.0,0.0,63,0.00,,CLR,0.00,VWS V14.01,2013-09-27 04:02:00,
2013-09-27 00:07:00,59.0,45.6,29.90,East,99,0.0,0.0,61,0.00,,CLR,0.00,VWS V14.01,2013-09-27 04:07:00,
2013-09-27 00:13:00,59.5,45.2,29.90,East,100,0.0,0.0,59,0.00,,CLR,0.00,VWS V14.01,2013-09-27 04:13:00,
2013-09-27 00:17:00,59.6,44.8,29.90,ESE,102,0.0,0.0,58,0.00,,CLR,0.00,VWS V14.01,2013-09-27 04:17:00,
2013-09-27 00:22:00,59.6,44.4,29.90,ESE,102,0.0,0.0,57,0.00,,CLR,0.00,VWS V14.01,2013-09-27 04:22:00,
2013-09-27 00:27:00,59.6,44.4,29.90,ESE,102,0.0,0.0,57,0.00,,CLR,0.00,VWS V14.01,2013-09-27 04:27:00,
2013-09-27 00:32:00,59.5,43.8,29.91,ESE,103,0.0,0.0,56,0.00,,CLR,0.00,VWS V14.01,2013-09-27 04:32:00,
2013-09-27 00:37:00,59.3,43.6,29.91,ESE,103,0.0,0.0,56,0.00,,CLR,0.00,VWS V14.01,2013-09-27 04:37:00,
2013-09-27 00:47:00,59.0,43.3,29.91,ESE,103,0.0,0.0,56,0.00,,CLR,0.00,VWS V14.01,2013-09-27 04:47:00,
2013-09-27 00:52:00,58.7,43.1,29.91,ESE,103,0.0,0.0,56,0.00,,CLR,0.00,VWS V14.01,2013-09-27 04:52:00,
2013-09-27 00:57:00,58.6,43.0,29.91,ESE,103,0.0,0.0,56,0.00,,CLR,0.00,VWS V14.01,2013-09-27 04:57:00,
2013-09-27 01:02:00,58.3,42.7,29.91,ESE,103,0.0,0.0,56,0.00,,CLR,0.00,VWS V14.01,2013-09-27 05:02:00,
2013-09-27 01:07:00,58.1,42.5,29.91,ESE,103,0.0,0.0,56,0.00,,CLR,0.00,VWS V14.01,2013-09-27 05:07:00,
2013-09-27 01:17:00,58.0,41.9,29.91,ESE,103,0.0,0.0,55,0.00,,CLR,0.00,VWS V14.01,2013-09-27 05:17:00,
2013-09-27 01:22:00,57.8,41.8,29.91,ESE,103,0.0,0.0,55,0.00,,CLR,0.00,VWS V14.01,2013-09-27 05:22:00,
2013-09-27 01:27:00,57.8,41.8,29.91,ESE,103,0.0,0.0,55,0.00,,CLR,0.00,VWS V14.01,2013-09-27 05:27:00,
2013-09-27 01:37:00,57.3,41.8,29.91,ESE,103,0.0,0.0,56,0.00,,CLR,0.00,VWS V14.01,2013-09-27 05:37:00,
2013-09-27 01:47:00,56.9,41.4,29.91,ESE,103,0.0,0.0,56,0.00,,CLR,0.00,VWS V14.01,2013-09-27 05:47:00,
2013-09-27 01:52:00,56.9,41.4,29.91,ESE,103,0.0,0.0,56,0.00,,CLR,0.00,VWS V14.01,2013-09-27 05:52:00,
2013-09-27 01:57:00,56.9,41.4,29.91,ESE,103,0.0,0.0,56,0.00,,CLR,0.00,VWS V14.01,2013-09-27 05:57:00,
2013-09-27 02:02:00,56.7,41.7,29.92,ESE,103,0.0,0.0,57,0.00,,CLR,0.00,VWS V14.01,2013-09-27 06:02:00,
2013-09-27 02:07:00,56.3,41.3,29.92,ESE,103,0.0,0.0,57,0.00,,CLR,0.00,VWS V14.01,2013-09-27 06:07:00,
2013-09-27 02:12:00,56.0,41.5,29.92,ESE,103,0.0,0.0,58,0.00,,CLR,0.00,VWS V14.01,2013-09-27 06:12:00,
2013-09-27 02:17:00,55.9,41.3,29.92,ESE,103,0.0,0.0,58,0.00,,CLR,0.00,VWS V14.01,2013-09-27 06:17:00,
2013-09-27 02:22:00,55.9,41.3,29.92,ESE,103,0.0,0.0,58,0.00,,CLR,0.00,VWS V14.01,2013-09-27 06:22:00,
2013-09-27 02:27:00,55.9,41.3,29.92,ESE,103,0.0,0.0,58,0.00,,CLR,0.00,VWS V14.01,2013-09-27 06:27:00,
2013-09-27 02:37:00,55.9,41.3,29.92,ESE,103,0.0,0.0,58,0.00,,CLR,0.00,VWS V14.01,2013-09-27 06:37:00,
2013-09-27 02:47:00,55.9,41.3,29.93,ESE,103,0.0,0.0,58,0.00,,CLR,0.00,VWS V14.01,2013-09-27 06:47:00,
2013-09-27 02:57:00,55.0,41.8,29.93,ESE,103,0.0,0.0,61,0.00,,CLR,0.00,VWS V14.01,2013-09-27 06:57:00,
2013-09-27 03:07:00,54.5,41.8,29.93,ESE,103,0.0,0.0,62,0.00,,CLR,0.00,VWS V14.01,2013-09-27 07:07:00,
2013-09-27 03:12:00,54.5,41.8,29.93,ESE,103,0.0,0.0,62,0.00,,CLR,0.00,VWS V14.01,2013-09-27 07:12:00,
2013-09-27 03:17:00,54.2,41.5,29.93,ESE,103,0.0,0.0,62,0.00,,CLR,0.00,VWS V14.01,2013-09-27 07:17:00,
2013-09-27 03:27:00,53.8,41.5,29.93,ESE,103,0.0,0.0,63,0.00,,CLR,0.00,VWS V14.01,2013-09-27 07:27:00,
2013-09-27 03:32:00,53.3,41.5,29.93,ESE,103,0.0,0.0,64,0.00,,CLR,0.00,VWS V14.01,2013-09-27 07:32:00,
2013-09-27 03:37:00,53.2,41.8,29.93,ESE,103,0.0,0.0,65,0.00,,CLR,0.00,VWS V14.01,2013-09-27 07:37:00,
2013-09-27 03:47:00,52.8,41.8,29.93,ESE,103,0.0,0.0,66,0.00,,CLR,0.00,VWS V14.01,2013-09-27 07:47:00,
2013-09-27 03:52:00,52.0,41.8,29.93,ESE,103,0.0,0.0,68,0.00,,CLR,0.00,VWS V14.01,2013-09-27 07:52:00,
2013-09-27 03:57:00,51.3,41.5,29.93,ESE,103,0.0,0.0,69,0.00,,CLR,0.00,VWS V14.01,2013-09-27 07:57:00,
2013-09-27 04:02:00,50.8,41.4,29.93,ESE,103,0.0,0.0,70,0.00,,CLR,0.00,VWS V14.01,2013-09-27 08:02:00,
2013-09-27 04:07:00,50.5,41.8,29.93,ESE,103,0.0,0.0,72,0.00,,CLR,0.00,VWS V14.01,2013-09-27 08:07:00,
2013-09-27 04:17:00,49.8,41.9,29.93,ESE,103,0.0,0.0,74,0.00,,CLR,0.00,VWS V14.01,2013-09-27 08:17:00,
2013-09-27 04:27:00,49.5,41.9,29.93,ESE,103,0.0,0.0,75,0.00,,CLR,0.00,VWS V14.01,2013-09-27 08:27:00,
2013-09-27 04:32:00,49.4,41.8,29.94,ESE,103,0.0,0.0,75,0.00,,CLR,0.00,VWS V14.01,2013-09-27 08:32:00,
2013-09-27 04:37:00,49.4,42.2,29.94,ESE,103,0.0,0.0,76,0.00,,CLR,0.00,VWS V14.01,2013-09-27 08:37:00,
2013-09-27 04:47:00,49.2,42.0,29.94,ESE,103,0.0,0.0,76,0.00,,CLR,0.00,VWS V14.01,2013-09-27 08:47:00,
2013-09-27 04:52:00,49.1,42.2,29.94,ESE,103,0.0,0.0,77,0.00,,CLR,0.00,VWS V14.01,2013-09-27 08:52:00,
2013-09-27 04:57:00,48.9,42.0,29.94,ESE,103,0.0,0.0,77,0.00,,CLR,0.00,VWS V14.01,2013-09-27 08:57:00,
2013-09-27 05:02:00,48.8,41.9,29.94,ESE,103,0.0,0.0,77,0.00,,CLR,0.00,VWS V14.01,2013-09-27 09:02:00,
2013-09-27 05:07:00,48.6,41.7,29.94,ESE,103,0.0,0.0,77,0.00,,CLR,0.00,VWS V14.01,2013-09-27 09:07:00,
2013-09-27 05:12:00,48.6,42.1,29.94,ESE,103,0.0,0.0,78,0.00,,CLR,0.00,VWS V14.01,2013-09-27 09:12:00,
2013-09-27 05:17:00,48.6,42.1,29.95,ESE,103,0.0,0.0,78,0.00,,CLR,0.00,VWS V14.01,2013-09-27 09:17:00,
2013-09-27 05:22:00,48.6,42.1,29.95,ESE,103,0.0,0.0,78,0.00,,CLR,0.00,VWS V14.01,2013-09-27 09:22:00,
2013-09-27 05:32:00,48.2,42.0,29.95,ESE,103,0.0,0.0,79,0.00,,CLR,0.00,VWS V14.01,2013-09-27 09:32:00,
2013-09-27 05:37:00,47.9,41.7,29.95,ESE,103,0.0,0.0,79,0.00,,CLR,0.00,VWS V14.01,2013-09-27 09:37:00,
2013-09-27 05:47:00,47.4,41.5,29.95,ESE,103,0.0,0.0,80,0.00,,CLR,0.00,VWS V14.01,2013-09-27 09:47:00,
2013-09-27 05:52:00,47.3,41.8,29.95,ESE,103,0.0,0.0,81,0.00,,CLR,0.00,VWS V14.01,2013-09-27 09:52:00,
2013-09-27 06:02:00,47.0,41.8,29.95,ESE,103,0.0,0.0,82,0.00,,CLR,0.00,VWS V14.01,2013-09-27 10:02:00,
2013-09-27 06:12:00,46.7,41.5,29.95,ESE,103,0.0,0.0,82,0.00,,CLR,0.00,VWS V14.01,2013-09-27 10:12:00,
2013-09-27 06:17:00,46.4,41.2,29.96,ESE,103,0.0,0.0,82,0.00,,CLR,0.00,VWS V14.01,2013-09-27 10:17:00,
2013-09-27 06:22:00,46.2,41.3,29.96,ESE,103,0.0,0.0,83,0.00,,CLR,0.00,VWS V14.01,2013-09-27 10:22:00,
2013-09-27 06:32:00,46.1,41.5,29.96,ESE,103,0.0,0.0,84,0.00,,CLR,0.00,VWS V14.01,2013-09-27 10:32:00,
2013-09-27 06:37:00,46.1,41.5,29.96,ESE,103,0.0,0.0,84,0.00,,CLR,0.00,VWS V14.01,2013-09-27 10:37:00,
2013-09-27 06:47:00,45.5,41.0,29.97,ESE,103,0.0,0.0,84,0.00,,CLR,0.00,VWS V14.01,2013-09-27 10:47:00,
2013-09-27 06:52:00,45.4,41.2,29.97,ESE,103,0.0,0.0,85,0.00,,CLR,0.00,VWS V14.01,2013-09-27 10:52:00,
2013-09-27 06:57:00,45.4,41.2,29.97,ESE,103,0.0,0.0,85,0.00,,CLR,0.00,VWS V14.01,2013-09-27 10:57:00,
2013-09-27 07:02:00,45.4,41.2,29.97,ESE,103,0.0,0.0,85,0.00,,CLR,0.00,VWS V14.01,2013-09-27 11:02:00,
2013-09-27 07:12:00,45.4,41.2,29.97,ESE,103,0.0,0.0,85,0.00,,CLR,0.00,VWS V14.01,2013-09-27 11:12:00,
2013-09-27 07:17:00,45.4,41.2,29.98,ESE,103,0.0,0.0,85,0.00,,CLR,0.00,VWS V14.01,2013-09-27 11:17:00,
2013-09-27 07:22:00,45.1,40.9,29.98,ESE,103,0.0,0.0,85,0.00,,CLR,0.00,VWS V14.01,2013-09-27 11:22:00,
2013-09-27 07:27:00,44.9,41.0,29.98,ESE,103,0.0,0.0,86,0.00,,CLR,0.00,VWS V14.01,2013-09-27 11:27:00,
2013-09-27 07:32:00,45.1,41.2,29.99,ESE,103,0.0,0.0,86,0.00,,CLR,0.00,VWS V14.01,2013-09-27 11:32:00,
2013-09-27 07:37:00,45.1,41.2,29.99,ESE,103,0.0,0.0,86,0.00,,CLR,0.00,VWS V14.01,2013-09-27 11:37:00,
2013-09-27 07:42:00,45.1,41.2,29.99,ESE,103,0.0,0.0,86,0.00,,CLR,0.00,VWS V14.01,2013-09-27 11:42:00,
2013-09-27 07:47:00,44.9,41.0,29.99,ESE,103,0.0,0.0,86,0.00,,CLR,0.00,VWS V14.01,2013-09-27 11:47:00,
2013-09-27 07:52:00,44.6,40.7,29.99,ESE,103,0.0,0.0,86,0.00,,CLR,0.00,VWS V14.01,2013-09-27 11:52:00,
2013-09-27 07:57:00,44.8,40.9,29.99,ESE,103,0.0,0.0,86,0.00,,CLR,0.00,VWS V14.01,2013-09-27 11:57:00,
2013-09-27 08:07:00,45.5,41.9,29.99,ESE,103,0.0,0.0,87,0.00,,CLR,0.00,VWS V14.01,2013-09-27 12:07:00,
2013-09-27 08:17:00,46.7,43.0,30.00,ESE,103,0.0,0.0,87,0.00,,CLR,0.00,VWS V14.01,2013-09-27 12:17:00,
2013-09-27 08:22:00,47.6,43.9,30.00,ESE,103,0.0,0.0,87,0.00,,CLR,0.00,VWS V14.01,2013-09-27 12:22:00,
2013-09-27 08:27:00,48.5,44.5,30.00,ESE,103,0.0,0.0,86,0.00,,CLR,0.00,VWS V14.01,2013-09-27 12:27:00,
2013-09-27 08:37:00,49.5,45.2,30.00,ESE,103,0.0,0.0,85,0.00,,CLR,0.00,VWS V14.01,2013-09-27 12:37:00,
2013-09-27 08:42:00,50.4,46.1,30.00,ESE,103,0.0,0.0,85,0.00,,CLR,0.00,VWS V14.01,2013-09-27 12:42:00,
2013-09-27 08:52:00,51.7,46.7,30.00,ESE,103,0.0,0.0,83,0.00,,CLR,0.00,VWS V14.01,2013-09-27 12:52:00,
2013-09-27 08:57:00,52.6,47.3,30.00,ESE,103,0.0,0.0,82,0.00,,CLR,0.00,VWS V14.01,2013-09-27 12:57:00,
2013-09-27 09:02:00,53.1,47.4,30.00,ESE,103,0.0,0.0,81,0.00,,CLR,0.00,VWS V14.01,2013-09-27 13:02:00,
2013-09-27 09:07:00,54.4,48.4,30.00,ESE,103,0.0,0.0,80,0.00,,CLR,0.00,VWS V14.01,2013-09-27 13:07:00,
2013-09-27 09:17:00,57.3,48.7,30.00,ESE,103,0.0,0.0,73,0.00,,CLR,0.00,VWS V14.01,2013-09-27 13:17:00,
2013-09-27 09:22:00,58.1,48.4,30.00,ESE,103,0.0,0.0,70,0.00,,CLR,0.00,VWS V14.01,2013-09-27 13:22:00,
2013-09-27 09:27:00,58.9,48.4,30.00,ESE,103,0.0,0.0,68,0.00,,CLR,0.00,VWS V14.01,2013-09-27 13:27:00,
2013-09-27 09:32:00,59.6,47.4,30.00,ESE,103,0.0,0.0,64,0.00,,CLR,0.00,VWS V14.01,2013-09-27 13:32:00,
2013-09-27 09:37:00,60.1,47.0,30.00,ESE,104,0.0,0.0,62,0.00,,CLR,0.00,VWS V14.01,2013-09-27 13:37:00,
2013-09-27 09:42:00,60.7,46.8,30.00,ESE,110,0.0,0.0,60,0.00,,CLR,0.00,VWS V14.01,2013-09-27 13:42:00,
2013-09-27 09:47:00,61.5,47.5,30.00,ESE,104,0.0,0.0,60,0.00,,CLR,0.00,VWS V14.01,2013-09-27 13:47:00,
2013-09-27 09:57:00,63.1,48.1,30.00,ESE,107,0.0,0.0,58,0.00,,CLR,0.00,VWS V14.01,2013-09-27 13:57:00,
2013-09-27 10:02:00,64.0,48.5,30.00,ESE,106,0.0,0.0,57,0.00,,CLR,0.00,VWS V14.01,2013-09-27 14:02:00,
2013-09-27 10:07:00,64.7,48.2,30.00,ESE,106,0.0,0.0,55,0.00,,CLR,0.00,VWS V14.01,2013-09-27 14:07:00,
2013-09-27 10:12:00,65.5,47.9,30.00,East,100,0.0,0.0,53,0.00,,CLR,0.00,VWS V14.01,2013-09-27 14:12:00,
2013-09-27 10:17:00,66.3,48.2,30.00,ESE,107,0.0,0.0,52,0.00,,CLR,0.00,VWS V14.01,2013-09-27 14:17:00,
2013-09-27 10:22:00,67.3,49.1,30.00,ESE,107,0.0,0.0,52,0.00,,CLR,0.00,VWS V14.01,2013-09-27 14:22:00,
2013-09-27 10:27:00,67.8,47.4,30.00,ESE,121,0.0,0.0,48,0.00,,CLR,0.00,VWS V14.01,2013-09-27 14:27:00,
2013-09-27 10:32:00,68.3,47.3,30.00,ESE,110,0.0,0.0,47,0.00,,CLR,0.00,VWS V14.01,2013-09-27 14:32:00,
2013-09-27 10:37:00,68.1,46.0,30.00,ESE,120,0.0,0.0,45,0.00,,CLR,0.00,VWS V14.01,2013-09-27 14:37:00,
2013-09-27 10:47:00,68.6,47.0,30.00,SE,128,0.0,0.0,46,0.00,,CLR,0.00,VWS V14.01,2013-09-27 14:47:00,
2013-09-27 10:57:00,69.6,47.3,30.00,SE,131,0.0,0.0,45,0.00,,CLR,0.00,VWS V14.01,2013-09-27 14:57:00,
2013-09-27 11:02:00,69.9,47.0,30.00,ESE,121,0.0,0.0,44,0.00,,CLR,0.00,VWS V14.01,2013-09-27 15:02:00,
2013-09-27 11:12:00,70.4,46.9,30.00,ESE,120,0.0,0.0,43,0.00,,CLR,0.00,VWS V14.01,2013-09-27 15:12:00,
2013-09-27 11:22:00,71.6,48.6,30.00,ESE,112,0.0,0.0,44,0.00,,CLR,0.00,VWS V14.01,2013-09-27 15:22:00,
2013-09-27 11:32:00,72.1,48.4,30.00,SE,131,0.0,0.0,43,0.00,,CLR,0.00,VWS V14.01,2013-09-27 15:32:00,
2013-09-27 11:37:00,72.8,47.8,30.00,ESE,119,0.0,0.0,41,0.00,,CLR,0.00,VWS V14.01,2013-09-27 15:37:00,
2013-09-27 11:42:00,73.3,48.8,30.00,ESE,107,0.0,0.0,42,0.00,,CLR,0.00,VWS V14.01,2013-09-27 15:42:00,
2013-09-27 11:52:00,73.9,47.4,30.00,ESE,107,0.0,0.0,39,0.00,,CLR,0.00,VWS V14.01,2013-09-27 15:52:00,
2013-09-27 12:02:00,74.7,48.1,29.99,SSE,154,0.0,0.0,39,0.00,,CLR,0.00,VWS V14.01,2013-09-27 16:02:00,
2013-09-27 12:07:00,74.7,47.4,29.99,ESE,114,0.0,0.0,38,0.00,,CLR,0.00,VWS V14.01,2013-09-27 16:07:00,
2013-09-27 12:12:00,75.3,49.3,29.99,East,90,0.0,0.0,40,0.00,,CLR,0.00,VWS V14.01,2013-09-27 16:12:00,
2013-09-27 12:22:00,74.6,47.3,29.99,ESE,113,0.0,0.0,38,0.00,,CLR,0.00,VWS V14.01,2013-09-27 16:22:00,
2013-09-27 12:27:00,75.1,47.8,29.99,ESE,120,0.0,0.0,38,0.00,,CLR,0.00,VWS V14.01,2013-09-27 16:27:00,
2013-09-27 12:32:00,76.0,47.2,29.99,East,90,0.0,0.0,36,0.00,,CLR,0.00,VWS V14.01,2013-09-27 16:32:00,
2013-09-27 12:37:00,75.3,46.5,29.99,SE,130,0.0,0.0,36,0.00,,CLR,0.00,VWS V14.01,2013-09-27 16:37:00,
2013-09-27 12:42:00,75.8,47.0,29.99,ESE,117,0.0,0.0,36,0.00,,CLR,0.00,VWS V14.01,2013-09-27 16:42:00,
2013-09-27 12:47:00,76.5,46.8,29.99,ESE,113,0.0,0.0,35,0.00,,CLR,0.00,VWS V14.01,2013-09-27 16:47:00,
2013-09-27 12:52:00,76.8,47.8,29.99,ESE,123,0.0,0.0,36,0.00,,CLR,0.00,VWS V14.01,2013-09-27 16:52:00,
2013-09-27 13:02:00,77.7,45.5,29.99,ESE,123,0.0,0.0,32,0.00,,CLR,0.00,VWS V14.01,2013-09-27 17:02:00,
2013-09-27 13:12:00,77.7,42.9,29.99,ESE,120,0.0,0.0,29,0.00,,CLR,0.00,VWS V14.01,2013-09-27 17:12:00,
2013-09-27 13:22:00,78.3,45.2,29.98,ESE,112,0.0,0.0,31,0.00,,CLR,0.00,VWS V14.01,2013-09-27 17:22:00,
2013-09-27 13:27:00,78.3,43.5,29.98,ESE,112,0.0,0.0,29,0.00,,CLR,0.00,VWS V14.01,2013-09-27 17:27:00,
2013-09-27 13:37:00,78.6,43.7,29.98,ESE,112,0.0,0.0,29,0.00,,CLR,0.00,VWS V14.01,2013-09-27 17:37:00,
2013-09-27 13:42:00,78.8,44.8,29.98,ESE,112,0.0,0.0,30,0.00,,CLR,0.00,VWS V14.01,2013-09-27 17:42:00,
2013-09-27 13:52:00,79.0,44.1,29.97,ESE,117,0.0,0.0,29,0.00,,CLR,0.00,VWS V14.01,2013-09-27 17:52:00,
2013-09-27 13:57:00,79.0,43.2,29.97,ESE,116,0.0,0.0,28,0.00,,CLR,0.00,VWS V14.01,2013-09-27 17:57:00,
2013-09-27 14:02:00,79.8,43.8,29.97,East,92,0.0,0.0,28,0.00,,CLR,0.00,VWS V14.01,2013-09-27 18:02:00,
2013-09-27 14:12:00,80.1,41.1,29.97,ESE,104,0.0,0.0,25,0.00,,CLR,0.00,VWS V14.01,2013-09-27 18:12:00,
2013-09-27 14:17:00,80.5,41.5,29.96,East,95,0.0,0.0,25,0.00,,CLR,0.00,VWS V14.01,2013-09-27 18:17:00,
2013-09-27 14:22:00,80.7,42.7,29.96,ENE,78,0.0,0.0,26,0.00,,CLR,0.00,VWS V14.01,2013-09-27 18:22:00,
2013-09-27 14:32:00,79.4,42.5,29.96,ESE,104,0.0,0.0,27,0.00,,CLR,0.00,VWS V14.01,2013-09-27 18:32:00,
2013-09-27 14:37:00,79.9,43.9,29.96,ESE,103,0.0,0.0,28,0.00,,CLR,0.00,VWS V14.01,2013-09-27 18:37:00,
2013-09-27 14:42:00,80.7,43.7,29.96,East,83,0.0,0.0,27,0.00,,CLR,0.00,VWS V14.01,2013-09-27 18:42:00,
2013-09-27 14:47:00,80.9,42.8,29.95,East,86,0.0,0.0,26,0.00,,CLR,0.00,VWS V14.01,2013-09-27 18:47:00,
2013-09-27 14:52:00,80.5,42.5,29.95,ENE,78,0.0,0.0,26,0.00,,CLR,0.00,VWS V14.01,2013-09-27 18:52:00,
2013-09-27 15:02:00,80.1,42.2,29.94,SE,130,0.0,0.0,26,0.00,,CLR,0.00,VWS V14.01,2013-09-27 19:02:00,
2013-09-27 15:12:00,80.3,40.3,29.94,East,86,0.0,0.0,24,0.00,,CLR,0.00,VWS V14.01,2013-09-27 19:12:00,
2013-09-27 15:17:00,80.3,42.3,29.94,ESE,123,0.0,0.0,26,0.00,,CLR,0.00,VWS V14.01,2013-09-27 19:17:00,
2013-09-27 15:22:00,80.1,37.9,29.94,ESE,117,0.0,0.0,22,0.00,,CLR,0.00,VWS V14.01,2013-09-27 19:22:00,
2013-09-27 15:27:00,79.4,37.3,29.94,SE,130,0.0,0.0,22,0.00,,CLR,0.00,VWS V14.01,2013-09-27 19:27:00,
2013-09-27 15:32:00,79.8,38.8,29.94,ESE,117,0.0,0.0,23,0.00,,CLR,0.00,VWS V14.01,2013-09-27 19:32:00,
2013-09-27 15:42:00,80.1,40.1,29.94,SSE,155,0.0,0.0,24,0.00,,CLR,0.00,VWS V14.01,2013-09-27 19:42:00,
2013-09-27 15:47:00,80.7,42.7,29.93,ESE,116,0.0,0.0,26,0.00,,CLR,0.00,VWS V14.01,2013-09-27 19:47:00,
2013-09-27 15:57:00,80.3,40.3,29.93,ESE,123,0.0,0.0,24,0.00,,CLR,0.00,VWS V14.01,2013-09-27 19:57:00,
2013-09-27 16:02:00,80.7,39.5,29.93,SE,144,0.0,0.0,23,0.00,,CLR,0.00,VWS V14.01,2013-09-27 20:02:00,
2013-09-27 16:12:00,80.3,42.3,29.93,SE,133,0.0,0.0,26,0.00,,CLR,0.00,VWS V14.01,2013-09-27 20:12:00,
2013-09-27 16:22:00,79.6,42.7,29.92,SE,126,0.0,0.0,27,0.00,,CLR,0.00,VWS V14.01,2013-09-27 20:22:00,
2013-09-27 16:27:00,78.5,39.8,29.92,ESE,102,0.0,0.0,25,0.00,,CLR,0.00,VWS V14.01,2013-09-27 20:27:00,
2013-09-27 16:32:00,77.7,42.0,29.92,ENE,73,0.0,0.0,28,0.00,,CLR,0.00,VWS V14.01,2013-09-27 20:32:00,
2013-09-27 16:37:00,77.9,42.2,29.92,East,99,0.0,0.0,28,0.00,,CLR,0.00,VWS V14.01,2013-09-27 20:37:00,
2013-09-27 16:47:00,77.9,43.1,29.92,ESE,117,0.0,0.0,29,0.00,,CLR,0.00,VWS V14.01,2013-09-27 20:47:00,
2013-09-27 16:57:00,78.6,43.7,29.92,East,83,0.0,0.0,29,0.00,,CLR,0.00,VWS V14.01,2013-09-27 20:57:00,
2013-09-27 17:02:00,79.0,44.1,29.91,ESE,116,0.0,0.0,29,0.00,,CLR,0.00,VWS V14.01,2013-09-27 21:02:00,
2013-09-27 17:07:00,79.4,44.4,29.91,ESE,117,0.0,0.0,29,0.00,,CLR,0.00,VWS V14.01,2013-09-27 21:07:00,
2013-09-27 17:12:00,79.4,43.5,29.91,East,95,0.0,0.0,28,0.00,,CLR,0.00,VWS V14.01,2013-09-27 21:12:00,
2013-09-27 17:22:00,79.0,45.0,29.91,East,100,0.0,0.0,30,0.00,,CLR,0.00,VWS V14.01,2013-09-27 21:22:00,
2013-09-27 17:27:00,78.8,44.8,29.91,ESE,112,0.0,0.0,30,0.00,,CLR,0.00,VWS V14.01,2013-09-27 21:27:00,
2013-09-27 17:32:00,78.6,45.5,29.91,ESE,114,0.0,0.0,31,0.00,,CLR,0.00,VWS V14.01,2013-09-27 21:32:00,
2013-09-27 17:42:00,78.5,45.4,29.91,SE,128,0.0,0.0,31,0.00,,CLR,0.00,VWS V14.01,2013-09-27 21:42:00,
2013-09-27 17:47:00,78.6,45.5,29.91,ESE,102,0.0,0.0,31,0.00,,CLR,0.00,VWS V14.01,2013-09-27 21:47:00,
2013-09-27 17:52:00,78.5,45.4,29.91,ESE,103,0.0,0.0,31,0.00,,CLR,0.00,VWS V14.01,2013-09-27 21:52:00,
2013-09-27 17:57:00,78.3,45.2,29.91,ESE,110,0.0,0.0,31,0.00,,CLR,0.00,VWS V14.01,2013-09-27 21:57:00,
2013-09-27 18:02:00,78.5,46.2,29.92,ESE,114,0.0,0.0,32,0.00,,CLR,0.00,VWS V14.01,2013-09-27 22:02:00,
2013-09-27 18:07:00,78.3,46.9,29.92,SE,137,0.0,0.0,33,0.00,,CLR,0.00,VWS V14.01,2013-09-27 22:07:00,
2013-09-27 18:17:00,78.1,46.7,29.92,ESE,121,0.0,0.0,33,0.00,,CLR,0.00,VWS V14.01,2013-09-27 22:17:00,
2013-09-27 18:22:00,78.1,46.7,29.92,ESE,123,0.0,0.0,33,0.00,,CLR,0.00,VWS V14.01,2013-09-27 22:22:00,
2013-09-27 18:27:00,78.1,47.5,29.92,ESE,121,0.0,0.0,34,0.00,,CLR,0.00,VWS V14.01,2013-09-27 22:27:00,
2013-09-27 18:37:00,78.1,48.2,29.92,ESE,120,0.0,0.0,35,0.00,,CLR,0.00,VWS V14.01,2013-09-27 22:37:00,
2013-09-27 18:47:00,77.6,48.6,29.92,ESE,114,0.0,0.0,36,0.00,,CLR,0.00,VWS V14.01,2013-09-27 22:47:00,
2013-09-27 18:52:00,76.8,49.3,29.92,ESE,113,0.0,0.0,38,0.00,,CLR,0.00,VWS V14.01,2013-09-27 22:52:00,
2013-09-27 19:02:00,76.0,49.3,29.92,ESE,109,0.0,0.0,39,0.00,,CLR,0.00,VWS V14.01,2013-09-27 23:02:00,
2013-09-27 19:07:00,75.4,48.8,29.92,ESE,109,0.0,0.0,39,0.00,,CLR,0.00,VWS V14.01,2013-09-27 23:07:00,
2013-09-27 19:12:00,75.1,49.2,29.92,ESE,102,0.0,0.0,40,0.00,,CLR,0.00,VWS V14.01,2013-09-27 23:12:00,
2013-09-27 19:22:00,74.2,49.0,29.92,ESE,103,0.0,0.0,41,0.00,,CLR,0.00,VWS V14.01,2013-09-27 23:22:00,
2013-09-27 19:27:00,73.9,48.7,29.92,ESE,104,0.0,0.0,41,0.00,,CLR,0.00,VWS V14.01,2013-09-27 23:27:00,
2013-09-27 19:32:00,73.0,49.2,29.92,ESE,104,0.0,0.0,43,0.00,,CLR,0.00,VWS V14.01,2013-09-27 23:32:00,
2013-09-27 19:42:00,71.1,49.9,29.92,ESE,104,0.0,0.0,47,0.00,,CLR,0.00,VWS V14.01,2013-09-27 23:42:00,
2013-09-27 19:47:00,70.4,49.8,29.92,ESE,104,0.0,0.0,48,0.00,,CLR,0.00,VWS V14.01,2013-09-27 23:47:00,
2013-09-27 19:52:00,69.8,50.3,29.92,ESE,104,0.0,0.0,50,0.00,,CLR,0.00,VWS V14.01,2013-09-27 23:52:00,
2013-09-27 20:02:00,68.9,50.0,29.92,ESE,104,0.0,0.0,51,0.00,,CLR,0.00,VWS V14.01,2013-09-28 00:02:00,
2013-09-27 20:07:00,68.8,50.0,29.92,ESE,104,0.0,0.0,51,0.00,,CLR,0.00,VWS V14.01,2013-09-28 00:07:00,
2013-09-27 20:17:00,68.8,50.0,29.92,ESE,104,0.0,0.0,51,0.00,,CLR,0.00,VWS V14.01,2013-09-28 00:17:00,
2013-09-27 20:27:00,68.4,50.1,29.92,ESE,104,0.0,0.0,52,0.00,,CLR,0.00,VWS V14.01,2013-09-28 00:27:00,
2013-09-27 20:32:00,68.1,49.8,29.92,ESE,104,0.0,0.0,52,0.00,,CLR,0.00,VWS V14.01,2013-09-28 00:32:00,
2013-09-27 20:37:00,67.6,49.9,29.92,ESE,104,0.0,0.0,53,0.00,,CLR,0.00,VWS V14.01,2013-09-28 00:37:00,
2013-09-27 20:42:00,67.3,50.1,29.92,ESE,104,0.0,0.0,54,0.00,,CLR,0.00,VWS V14.01,2013-09-28 00:42:00,
2013-09-27 20:47:00,66.8,50.1,29.92,ESE,104,0.0,0.0,55,0.00,,CLR,0.00,VWS V14.01,2013-09-28 00:47:00,
2013-09-27 20:52:00,66.4,50.2,29.92,ESE,104,0.0,0.0,56,0.00,,CLR,0.00,VWS V14.01,2013-09-28 00:52:00,
2013-09-27 20:57:00,66.1,50.0,29.92,ESE,104,0.0,0.0,56,0.00,,CLR,0.00,VWS V14.01,2013-09-28 00:57:00,
2013-09-27 21:02:00,65.6,50.0,29.92,ESE,104,0.0,0.0,57,0.00,,CLR,0.00,VWS V14.01,2013-09-28 01:02:00,
2013-09-27 21:12:00,65.0,49.9,29.92,ESE,104,0.0,0.0,58,0.00,,CLR,0.00,VWS V14.01,2013-09-28 01:12:00,
2013-09-27 21:17:00,64.7,50.1,29.92,ESE,104,0.0,0.0,59,0.00,,CLR,0.00,VWS V14.01,2013-09-28 01:17:00,
2013-09-27 21:22:00,64.5,50.3,29.92,ESE,104,0.0,0.0,60,0.00,,CLR,0.00,VWS V14.01,2013-09-28 01:22:00,
2013-09-27 21:32:00,63.5,50.3,29.93,ESE,104,0.0,0.0,62,0.00,,CLR,0.00,VWS V14.01,2013-09-28 01:32:00,
2013-09-27 21:37:00,63.2,50.0,29.93,ESE,104,0.0,0.0,62,0.00,,CLR,0.00,VWS V14.01,2013-09-28 01:37:00,
2013-09-27 21:42:00,63.1,50.3,29.93,ESE,104,0.0,0.0,63,0.00,,CLR,0.00,VWS V14.01,2013-09-28 01:42:00,
2013-09-27 21:52:00,62.3,50.0,29.93,ESE,104,0.0,0.0,64,0.00,,CLR,0.00,VWS V14.01,2013-09-28 01:52:00,
2013-09-27 21:57:00,62.1,50.2,29.93,East,92,0.0,0.0,65,0.00,,CLR,0.00,VWS V14.01,2013-09-28 01:57:00,
2013-09-27 22:02:00,62.7,49.5,29.93,SE,128,0.0,0.0,62,0.00,,CLR,0.00,VWS V14.01,2013-09-28 02:02:00,
2013-09-27 22:07:00,63.7,49.6,29.93,ESE,110,0.0,0.0,60,0.00,,CLR,0.00,VWS V14.01,2013-09-28 02:07:00,
2013-09-27 22:12:00,64.2,49.1,29.93,ESE,106,0.0,0.0,58,0.00,,CLR,0.00,VWS V14.01,2013-09-28 02:12:00,
2013-09-27 22:17:00,64.3,49.2,29.93,ESE,107,0.0,0.0,58,0.00,,CLR,0.00,VWS V14.01,2013-09-28 02:17:00,
2013-09-27 22:22:00,64.5,49.0,29.93,East,93,0.0,0.0,57,0.00,,CLR,0.00,VWS V14.01,2013-09-28 02:22:00,
2013-09-27 22:27:00,64.5,49.0,29.93,ESE,112,0.0,0.0,57,0.00,,CLR,0.00,VWS V14.01,2013-09-28 02:27:00,
2013-09-27 22:32:00,64.3,48.8,29.94,ESE,107,0.0,0.0,57,0.00,,CLR,0.00,VWS V14.01,2013-09-28 02:32:00,
2013-09-27 22:37:00,64.2,48.7,29.94,ESE,109,0.0,0.0,57,0.00,,CLR,0.00,VWS V14.01,2013-09-28 02:37:00,
2013-09-27 22:42:00,64.0,48.9,29.94,ESE,116,0.0,0.0,58,0.00,,CLR,0.00,VWS V14.01,2013-09-28 02:42:00,
2013-09-27 22:47:00,63.9,48.8,29.94,ESE,109,0.0,0.0,58,0.00,,CLR,0.00,VWS V14.01,2013-09-28 02:47:00,
2013-09-27 22:52:00,63.7,48.7,29.94,ESE,112,0.0,0.0,58,0.00,,CLR,0.00,VWS V14.01,2013-09-28 02:52:00,
2013-09-27 22:57:00,63.4,48.8,29.94,ESE,120,0.0,0.0,59,0.00,,CLR,0.00,VWS V14.01,2013-09-28 02:57:00,
2013-09-27 23:02:00,63.1,49.0,29.94,ESE,110,0.0,0.0,60,0.00,,CLR,0.00,VWS V14.01,2013-09-28 03:02:00,
2013-09-27 23:12:00,62.6,49.4,29.94,ESE,112,0.0,0.0,62,0.00,,CLR,0.00,VWS V14.01,2013-09-28 03:12:00,
2013-09-27 23:17:00,62.4,49.2,29.94,ESE,103,0.0,0.0,62,0.00,,CLR,0.00,VWS V14.01,2013-09-28 03:17:00,
2013-09-27 23:22:00,62.3,49.6,29.94,ESE,120,0.0,0.0,63,0.00,,CLR,0.00,VWS V14.01,2013-09-28 03:22:00,
2013-09-27 23:32:00,62.1,49.8,29.93,ESE,114,0.0,0.0,64,0.00,,CLR,0.00,VWS V14.01,2013-09-28 03:32:00,
2013-09-27 23:42:00,61.6,49.7,29.93,ESE,109,0.0,0.0,65,0.00,,CLR,0.00,VWS V14.01,2013-09-28 03:42:00,
2013-09-27 23:47:00,61.5,50.0,29.93,ESE,112,0.0,0.0,66,0.00,,CLR,0.00,VWS V14.01,2013-09-28 03:47:00,
2013-09-27 23:52:00,61.3,49.9,29.93,ESE,114,0.0,0.0,66,0.00,,CLR,0.00,VWS V14.01,2013-09-28 03:52:00,